Wetbulb
72.26 72.05 71.47 71.99 72.81 72.39 72.49 72.42 70.54 70.01 70.13 66.10 69.09 70.11 72.17 72.61 72.53 73.16 72.05 72.55 71.33 71.20 71.99 71.80 71.28 71.19 71.08 70.92 71.22 71.14 71.11 69.69 66.67 67.59 69.97 70.56 71.18 70.22 69.13 70.62 69.85 68.98 68.33
68.93 70.67 71.30 71.60 72.39 71.99 71.93 72.76 70.34 66.66 66.27 69.39 71.07 67.24 70.22 72.65 73.44 72.95 71.76 72.67 71.38 70.15 71.05 70.97 71.23 74.23 71.15 70.64 70.56 70.21 70.20 71.32 68.90 66.06 68.97 70.00 70.18 68.93 69.91 69.87 72.90 70.71 68.10
67.09 67.65 71.45 72.04 72.37 72.36 72.19 72.31 73.26 70.02 66.47 67.65 71.39 70.78 71.36 72.73 72.79 73.22 72.42 72.17 73.17 72.48 71.45 68.17 69.09 70.74 69.78 70.65 70.82 70.79 70.51 71.65 70.60 68.55 67.52 68.86 70.57 71.19 70.66 71.25 70.34 68.60 69.29
66.21 65.81 68.37 71.93 71.87 72.74 72.87 72.36 72.19 72.89 71.15 71.08 72.13 72.90 73.07 73.03 73.24 73.72 73.40 72.73 72.15 72.55 71.87 69.78 70.61 71.18 69.75 69.66 71.06 70.95 69.97 70.42 69.65 69.40 68.12 67.38 68.44 70.45 69.76 68.26 68.03 66.09 65.07
67.36 67.22 69.46 69.76 71.34 72.18 72.43 72.71 72.51 72.35 72.94 72.92 72.68 73.14 73.67 73.64 74.50 73.26 73.15 72.62 72.55 72.21 72.29 72.50 73.11 73.33 73.50 73.27 71.57 70.58 70.23 69.14 69.11 67.67 67.54 67.58 67.49 67.34 66.15 67.58 67.38 69.05 66.40
68.35 69.38 68.37 67.13 66.64 66.89 69.64 71.78 72.43 72.38 72.37 72.89 72.61 72.48 72.68 73.90 70.64 69.81 71.81 72.64 73.08 71.92 70.73 71.30 72.50 73.40 72.04 72.13 70.12 69.40 70.33 69.55 68.70 68.06 67.61 65.93 66.80 67.45 67.96 67.99 67.27 65.84 65.72
67.58 68.06 67.63 66.53 65.90 65.33 65.44 66.96 70.87 71.74 71.96 72.32 73.05 72.94 72.69 73.10 68.55 68.43 68.86 70.91 72.22 72.21 71.70 71.14 71.43 73.38 71.20 70.42 67.85 67.13 66.80 66.67 67.46 68.61 67.02 66.59 66.39 65.08 65.93 64.37 64.72 64.76 64.26
67.99 67.34 67.22 64.24 64.63 67.90 69.63 67.65 71.13 72.20 72.23 72.19 72.49 73.14 72.82 73.12 67.38 66.50 68.23 69.64 71.33 72.08 72.10 71.67 71.58 70.89 70.08 71.22 68.60 68.89 64.02 60.07 61.24 66.78 64.92 61.81 60.64 60.82 63.86 65.06 65.95 65.67 64.07
68.82 67.90 67.59 65.55 66.40 69.39 70.14 70.66 71.49 72.39 72.08 72.23 72.34 72.75 72.61 73.34 65.62 64.84 65.95 69.28 71.20 71.28 71.68 71.88 71.44 71.19 66.13 66.01 69.39 67.47 60.05 58.62 59.39 59.71 59.84 60.23 60.50 61.03 61.61 63.56 62.18 65.17 63.68
67.85 68.61 70.27 70.02 69.48 70.58 69.87 71.06 72.12 72.25 72.45 72.79 72.41 72.56 69.43 72.23 66.19 62.94 63.87 70.17 68.71 70.37 70.19 64.10 62.34 67.92 62.40 63.00 67.90 66.23 60.59 59.18 60.27 59.75 60.97 59.63 59.03 59.59 61.23 60.33 59.94 59.85 60.55
68.00 68.86 69.54 70.64 71.11 71.59 71.28 71.49 71.00 71.28 71.27 71.52 71.45 71.86 72.15 71.72 71.72 60.87 61.45 69.34 70.18 70.28 67.89 64.57 60.58 58.25 57.40 58.49 63.52 66.63 63.61 60.90 62.73 62.12 59.92 59.95 59.69 59.09 60.16 60.60 60.23 59.24 56.25
67.02 67.44 68.74 69.25 70.60 70.59 69.06 69.71 69.76 70.44 69.97 69.59 70.13 70.67 71.74 71.97 64.99 61.96 58.13 61.01 64.27 68.89 67.19 62.23 59.52 57.24 55.03 56.22 58.13 57.76 58.34 61.33 62.30 61.03 59.35 58.08 58.40 58.32 59.48 60.03 59.34 60.34 59.60
65.95 66.51 67.20 67.66 68.08 66.86 65.20 64.10 65.23 67.61 66.99 66.02 65.36 66.45 67.58 66.38 63.68 57.24 57.60 59.60 61.05 65.13 63.57 59.70 56.48 53.94 54.13 57.02 57.06 57.96 59.78 61.80 60.98 59.39 58.01 58.00 58.40 58.63 58.92 59.72 60.52 59.63 59.26
64.51 65.22 66.29 66.59 65.95 63.30 62.09 60.42 61.99 63.10 63.80 65.75 65.66 65.29 64.57 64.23 62.60 61.31 60.54 60.54 58.57 59.37 58.47 59.01 59.21 58.65 58.45 58.99 60.19 60.94 62.36 61.25 59.36 58.16 57.56 57.54 57.32 57.24 56.98 58.45 59.27 59.02 56.89
64.35 65.19 65.62 65.77 65.31 56.28 50.09 49.55 52.51 55.25 52.63 59.13 63.30 65.25 63.86 62.39 61.69 57.58 58.09 60.72 60.70 58.39 58.69 59.94 60.16 60.14 60.14 60.68 60.96 60.73 60.95 60.41 58.85 58.64 58.36 58.06 57.39 56.26 54.14 54.69 54.45 55.30 56.25
63.16 65.09 65.94 65.50 64.21 60.21 54.71 50.66 47.13 46.17 44.79 43.97 44.48 50.88 52.98 50.17 47.09 46.18 46.00 48.72 51.62 52.17 59.27 58.67 58.35 58.67 58.27 57.54 57.14 57.00 57.34 58.03 57.11 56.29 55.91 54.47 51.95 51.16 52.62 52.54 54.17 54.40 52.03
62.87 63.95 63.65 61.64 62.25 60.45 59.16 56.16 54.67 50.50 46.84 43.90 43.07 45.28 47.09 45.80 44.90 45.46 46.37 47.09 49.27 54.79 57.72 57.22 56.86 56.80 56.32 56.16 56.04 55.20 54.34 55.85 54.54 52.94 52.08 52.57 51.69 51.76 50.25 49.53 49.91 51.01 50.60
63.07 57.60 63.27 61.79 60.47 59.10 58.32 56.36 55.26 53.57 51.42 50.15 45.70 45.23 43.25 43.45 43.65 45.10 47.45 52.34 56.88 56.44 56.88 55.90 55.37 55.76 55.16 54.63 54.98 54.61 53.56 52.94 52.51 50.89 50.52 50.83 50.15 49.93 47.48 45.48 45.84 46.36 47.38
62.88 63.07 63.15 61.62 60.58 57.92 57.00 56.04 55.04 53.74 52.80 52.11 53.04 50.30 47.91 45.46 46.37 47.27 50.93 57.28 56.34 56.12 56.06 55.50 55.74 55.32 55.56 55.84 54.14 52.99 52.84 50.96 49.95 49.04 48.75 48.74 48.62 47.75 46.82 46.19 45.22 46.67 47.31
62.82 61.33 61.00 60.77 58.65 57.66 57.22 56.68 56.28 55.92 55.52 55.16 55.16 55.40 56.04 55.16 55.29 55.26 55.82 56.04 55.92 55.72 55.94 55.96 56.18 56.22 55.60 55.10 53.44 51.88 51.76 51.30 49.92 49.20 48.60 49.41 49.45 49.13 47.46 47.56 46.85 45.82 47.04
61.18 62.85 61.23 60.50 58.90 58.21 57.79 57.50 57.31 56.74 56.00 55.90 55.70 55.88 51.17 55.63 54.73 54.75 54.71 55.08 55.64 56.01 55.74 55.82 55.59 54.96 54.71 53.37 52.02 51.26 50.79 50.82 51.72 50.68 50.25 48.96 49.60 47.59 47.47 47.80 48.28 47.65 46.16
63.31 62.81 62.64 61.82 60.42 58.42 58.43 57.75 57.52 57.03 56.43 55.44 53.82 52.84 48.30 55.35 55.09 55.10 54.92 54.90 55.56 55.67 55.75 54.83 54.88 54.91 55.08 53.60 52.99 52.71 52.81 51.87 51.36 51.07 50.51 49.51 48.61 48.66 48.93 47.98 47.66 47.09 46.52
62.29 61.81 62.88 61.77 61.62 58.63 59.47 59.91 59.16 57.93 57.46 56.53 55.07 54.76 53.35 53.32 54.52 55.63 56.99 57.52 55.82 55.45 55.87 56.48 55.84 55.27 56.02 55.96 55.83 54.36 52.51 51.49 52.25 52.44 51.68 50.58 49.47 49.30 48.01 47.50 47.05 44.90 44.31
60.79 60.55 59.73 59.25 59.43 58.70 58.30 57.41 56.37 53.83 57.19 57.04 56.54 56.19 55.17 55.27 55.42 55.84 57.91 56.41 56.43 57.60 58.08 57.42 56.85 56.89 56.02 55.58 55.53 54.92 54.65 52.87 51.36 51.57 51.70 50.78 47.96 47.69 48.70 47.34 47.77 45.89 44.31
57.96 59.31 58.24 57.62 57.34 56.82 56.83 56.48 55.45 55.44 55.66 56.22 56.06 56.49 56.28 55.47 56.11 56.24 56.62 57.61 57.74 56.49 56.56 58.42 59.13 57.93 58.67 56.95 55.84 56.28 48.15 44.04 51.34 48.32 51.17 50.75 49.78 49.26 47.88 47.59 47.58 47.49 45.75
56.58 56.40 56.04 56.50 56.72 56.70 55.87 55.83 55.13 55.08 55.20 55.53 54.86 55.04 55.22 54.92 54.96 56.09 56.82 56.71 57.34 57.97 58.00 57.09 57.24 57.68 57.38 57.86 56.13 46.55 39.25 40.65 47.70 45.08 51.49 50.18 49.39 48.74 47.73 46.63 47.21 47.18 48.67
MSLP
1012.40 1012.86 1013.58 1014.10 1014.53 1014.88 1015.04 1015.21 1015.21 1015.14 1014.82 1015.41 1015.19 1015.98 1016.44 1016.20 1016.13 1016.12 1016.39 1016.80 1017.09 1017.23 1016.91 1016.98 1017.09 1017.11 1017.37 1017.60 1017.61 1017.69 1017.87 1017.69 1017.85 1017.84 1017.88 1017.95 1018.09 1017.90 1018.14 1018.15 1018.14 1018.94 1017.98
1013.77 1013.48 1013.03 1013.82 1014.23 1014.75 1015.00 1014.97 1015.74 1015.10 1015.26 1015.28 1015.25 1015.87 1016.09 1016.01 1016.12 1016.24 1016.42 1016.61 1017.01 1017.05 1016.95 1017.13 1017.18 1017.16 1017.26 1017.30 1017.57 1017.92 1017.94 1017.65 1017.72 1017.99 1017.86 1017.87 1018.04 1018.03 1017.80 1018.20 1018.11 1018.56 1019.52
1012.43 1013.06 1013.29 1013.35 1013.87 1014.23 1014.51 1014.61 1014.65 1015.14 1015.67 1015.74 1015.73 1015.74 1015.69 1015.74 1015.95 1016.04 1016.14 1016.25 1016.62 1016.71 1016.82 1016.86 1016.82 1016.90 1016.98 1017.01 1017.38 1017.46 1017.54 1017.44 1017.60 1017.93 1018.25 1018.20 1018.05 1018.06 1018.22 1018.17 1018.49 1018.99 1019.54
1011.21 1012.40 1013.02 1013.08 1013.15 1013.60 1013.72 1014.32 1014.46 1014.44 1014.61 1014.99 1015.27 1015.30 1015.27 1015.43 1015.57 1015.81 1016.04 1016.05 1016.27 1016.38 1016.33 1016.55 1016.68 1016.69 1016.50 1016.61 1016.92 1017.02 1017.23 1017.52 1017.67 1017.89 1018.15 1018.23 1018.21 1018.09 1018.07 1018.42 1018.91 1019.37 1019.86
1012.98 1013.49 1013.63 1013.23 1013.26 1013.01 1012.98 1013.25 1013.82 1014.14 1014.07 1014.22 1014.53 1014.71 1014.78 1014.93 1015.10 1015.33 1015.41 1015.49 1015.82 1015.99 1015.93 1015.93 1016.06 1016.05 1016.18 1016.18 1016.47 1016.74 1017.07 1017.37 1017.50 1017.87 1018.11 1018.05 1018.05 1018.07 1018.10 1018.14 1018.38 1018.87 1019.69
1013.08 1013.00 1013.78 1012.96 1013.57 1013.92 1013.64 1012.62 1012.88 1013.26 1013.66 1013.70 1013.97 1014.26 1014.49 1014.43 1014.55 1014.70 1014.83 1015.05 1015.26 1015.54 1015.74 1015.65 1015.72 1015.87 1015.81 1016.10 1016.32 1016.62 1016.82 1017.21 1017.46 1017.66 1017.89 1018.03 1017.90 1017.87 1017.95 1017.99 1018.14 1018.69 1019.41
1013.28 1012.99 1012.46 1011.70 1012.23 1012.49 1013.01 1013.37 1012.63 1012.66 1012.90 1013.27 1013.31 1013.61 1013.84 1013.86 1013.87 1013.97 1014.18 1014.64 1014.71 1014.76 1015.04 1015.21 1015.41 1015.50 1015.58 1016.01 1016.24 1016.60 1016.92 1017.10 1017.18 1017.20 1017.45 1017.76 1017.95 1018.04 1017.98 1018.13 1018.19 1018.38 1018.84
1012.07 1012.43 1012.56 1011.90 1012.44 1012.45 1012.27 1012.67 1012.33 1011.99 1012.15 1012.49 1012.74 1012.93 1013.12 1013.18 1013.28 1013.46 1013.58 1013.92 1014.09 1014.02 1014.09 1014.39 1014.81 1014.97 1015.28 1015.67 1016.24 1016.66 1017.14 1017.33 1017.33 1017.07 1017.33 1017.81 1017.90 1018.02 1017.98 1017.94 1018.08 1018.52 1018.99
1011.35 1011.75 1012.09 1012.29 1012.13 1011.84 1011.65 1011.41 1011.14 1011.35 1011.47 1011.64 1011.85 1012.10 1012.41 1012.41 1012.53 1012.74 1013.01 1013.30 1013.42 1013.50 1013.46 1013.74 1014.18 1014.52 1014.92 1015.31 1015.85 1016.62 1017.53 1017.84 1017.76 1017.55 1017.67 1017.91 1018.04 1017.98 1017.78 1017.88 1018.14 1018.43 1018.98
1010.98 1011.20 1011.14 1011.17 1011.33 1011.14 1010.96 1010.74 1010.63 1010.64 1010.77 1011.17 1011.35 1011.34 1011.58 1011.84 1011.87 1011.91 1012.53 1012.85 1012.96 1013.16 1013.28 1013.81 1013.94 1014.20 1014.68 1014.98 1015.48 1016.20 1017.07 1017.71 1017.93 1018.27 1018.29 1018.54 1018.49 1018.50 1018.45 1018.13 1017.95 1018.21 1018.70
1010.68 1010.41 1010.46 1010.46 1010.36 1010.27 1010.17 1010.19 1010.34 1010.38 1010.47 1010.74 1010.81 1010.83 1011.04 1011.00 1011.12 1011.36 1011.75 1012.19 1012.38 1012.74 1013.27 1013.98 1014.42 1014.58 1014.88 1015.12 1015.43 1015.85 1016.22 1017.05 1017.80 1018.25 1018.33 1018.82 1018.95 1018.88 1019.04 1019.48 1018.24 1018.07 1018.57
1010.35 1010.46 1010.22 1010.11 1010.04 1010.15 1010.21 1010.25 1010.25 1010.51 1010.69 1010.77 1010.97 1010.93 1010.70 1010.65 1010.65 1010.69 1011.08 1011.51 1011.93 1012.27 1012.86 1013.68 1014.49 1014.83 1015.20 1015.41 1015.66 1015.88 1016.32 1017.09 1017.87 1018.51 1018.65 1018.74 1019.00 1019.11 1019.17 1019.43 1019.11 1018.72 1018.69
1010.07 1010.15 1010.30 1010.12 1010.02 1010.34 1010.56 1010.90 1011.15 1011.06 1011.10 1011.14 1011.23 1011.17 1010.82 1010.77 1010.75 1010.65 1010.76 1010.84 1011.56 1012.31 1012.79 1013.56 1014.40 1014.93 1015.39 1015.99 1016.19 1016.46 1016.76 1017.42 1018.02 1018.62 1019.42 1019.07 1018.63 1018.44 1018.54 1019.01 1019.20 1019.28 1019.25
1010.10 1010.05 1010.15 1010.29 1010.60 1010.94 1011.37 1011.74 1011.80 1011.82 1011.74 1011.59 1011.31 1011.20 1011.10 1011.03 1011.04 1011.14 1011.05 1011.06 1011.03 1012.31 1013.12 1013.80 1014.26 1014.92 1015.46 1016.07 1016.44 1016.62 1017.07 1017.58 1018.12 1018.70 1019.22 1019.06 1018.77 1018.85 1018.73 1019.04 1019.49 1019.58 1019.76
1009.87 1009.97 1010.14 1010.30 1010.71 1011.32 1012.24 1012.73 1012.56 1012.39 1012.47 1012.15 1011.60 1011.22 1011.30 1011.37 1011.31 1011.27 1011.34 1011.34 1011.21 1011.94 1012.97 1012.37 1014.17 1014.93 1015.61 1015.98 1016.53 1016.99 1017.47 1017.65 1018.40 1018.70 1018.71 1019.03 1019.06 1019.10 1019.29 1019.30 1019.45 1019.69 1020.16
1009.77 1009.87 1010.12 1010.43 1010.76 1011.32 1012.10 1012.90 1013.06 1012.86 1012.44 1012.00 1011.64 1011.67 1011.66 1011.46 1011.48 1011.77 1011.90 1011.89 1012.05 1012.48 1012.79 1013.35 1014.33 1014.93 1015.43 1015.52 1016.56 1017.44 1017.66 1017.99 1018.38 1018.66 1018.80 1018.86 1019.24 1019.43 1019.77 1019.69 1019.68 1020.08 1020.46
1009.73 1009.83 1010.10 1010.38 1010.58 1011.11 1011.64 1012.28 1012.72 1012.83 1012.44 1012.08 1011.80 1011.69 1011.60 1011.75 1011.94 1012.18 1012.53 1012.89 1013.19 1013.41 1013.49 1014.30 1015.14 1015.54 1015.80 1016.41 1017.07 1017.50 1017.88 1018.03 1018.39 1018.82 1019.15 1019.15 1019.49 1019.84 1020.27 1020.27 1020.28 1020.68 1021.18
1009.67 1009.82 1010.02 1010.35 1010.70 1011.22 1011.76 1012.20 1012.43 1012.57 1012.58 1012.87 1012.87 1012.61 1012.63 1012.62 1012.85 1012.78 1012.86 1013.00 1013.72 1014.25 1014.62 1015.24 1016.24 1016.69 1016.86 1017.25 1017.59 1017.94 1018.37 1018.59 1018.84 1018.95 1019.15 1019.38 1019.80 1020.11 1020.45 1020.63 1020.72 1020.98 1021.40
1009.57 1009.78 1009.98 1010.35 1010.78 1011.21 1011.73 1012.17 1012.49 1012.66 1012.84 1013.12 1013.20 1013.52 1013.58 1013.42 1013.58 1013.70 1013.66 1013.84 1014.22 1014.79 1015.49 1016.38 1016.97 1017.61 1017.93 1018.20 1018.17 1018.08 1018.31 1018.49 1018.88 1019.37 1019.70 1019.66 1019.87 1020.44 1020.62 1020.71 1020.87 1021.09 1021.60
1009.48 1009.68 1009.94 1010.33 1010.93 1011.40 1011.87 1012.34 1012.77 1012.97 1013.12 1013.35 1013.50 1013.71 1013.86 1013.95 1014.19 1014.54 1014.77 1014.97 1015.27 1015.72 1016.09 1016.46 1017.21 1017.62 1017.81 1018.22 1018.47 1018.81 1018.81 1018.79 1019.06 1019.42 1019.75 1019.90 1020.04 1020.55 1020.81 1020.97 1021.15 1021.39 1021.75
1009.40 1009.67 1009.99 1010.47 1010.97 1011.43 1011.84 1012.34 1012.78 1013.15 1013.39 1013.69 1013.91 1013.89 1013.94 1014.25 1014.69 1014.93 1015.27 1015.73 1015.84 1016.15 1016.61 1017.02 1017.46 1017.70 1017.66 1018.06 1018.50 1018.58 1018.88 1019.08 1019.28 1019.61 1019.69 1019.83 1020.23 1020.66 1020.55 1020.70 1021.06 1021.28 1021.52
1009.07 1009.41 1009.82 1010.30 1010.91 1011.44 1011.88 1012.25 1012.69 1013.07 1013.47 1013.69 1014.12 1014.48 1014.48 1014.66 1015.11 1015.35 1015.64 1016.00 1016.23 1016.23 1016.34 1016.62 1017.07 1017.38 1017.63 1018.10 1018.23 1018.58 1018.95 1019.17 1019.34 1019.28 1019.52 1020.01 1020.29 1020.44 1020.67 1020.77 1021.00 1021.37 1021.61
1008.91 1009.21 1009.42 1009.87 1010.35 1011.02 1011.71 1011.94 1012.36 1012.73 1012.95 1013.36 1014.00 1014.45 1014.80 1014.91 1015.07 1015.27 1015.52 1015.54 1015.77 1015.84 1016.08 1016.32 1016.90 1017.27 1017.40 1017.62 1017.89 1018.23 1018.79 1018.87 1018.72 1019.13 1019.66 1019.91 1020.27 1020.46 1020.60 1020.98 1021.41 1021.64 1021.83
1008.79 1009.10 1009.33 1009.74 1009.95 1010.73 1011.27 1011.56 1012.01 1012.27 1012.54 1012.90 1013.40 1013.86 1014.15 1014.28 1014.32 1014.15 1014.54 1014.98 1015.23 1015.47 1015.59 1016.10 1016.51 1016.69 1017.05 1017.20 1017.32 1017.68 1018.01 1018.34 1018.43 1018.67 1019.17 1019.94 1020.46 1020.44 1020.55 1021.03 1021.34 1021.44 1021.88
1008.97 1009.22 1009.66 1010.08 1010.63 1010.74 1011.14 1011.32 1011.36 1011.70 1012.11 1012.31 1012.52 1012.87 1013.16 1013.54 1013.51 1013.62 1014.05 1014.56 1014.92 1015.15 1015.58 1015.71 1015.89 1016.13 1016.37 1016.70 1016.84 1017.23 1017.49 1017.84 1018.24 1018.50 1018.99 1019.44 1020.07 1020.44 1020.65 1020.82 1021.13 1021.52 1021.73
1009.44 1009.68 1010.18 1010.58 1010.92 1011.36 1011.49 1011.38 1011.91 1011.93 1011.93 1012.00 1012.16 1012.32 1012.72 1013.01 1013.36 1013.66 1014.02 1014.30 1014.66 1014.97 1015.05 1015.55 1015.79 1016.00 1016.30 1016.41 1016.62 1016.93 1017.56 1017.84 1018.16 1018.56 1018.97 1019.56 1020.18 1020.54 1020.82 1020.93 1020.92 1021.22 1021.41
Wind_Speed
12 11 8 7 7 6 5 4 6 6 7 8 8 6 7 7 6 4 4 3 2 4 4 3 4 2 2 1 2 3 3 1 2 2 2 4 1 7 3 4 7 6 5
5 6 9 7 6 6 6 6 12 8 6 7 6 7 7 6 7 7 6 4 5 6 5 2 4 3 2 2 0 1 2 2 2 2 2 1 4 2 2 3 4 6 4
6 5 9 11 11 9 8 8 7 9 12 9 7 7 6 6 6 6 7 7 6 6 6 6 6 5 4 1 3 1 1 2 2 3 1 2 1 2 2 3 6 6 4
9 7 5 11 14 13 11 8 7 7 7 8 8 8 7 6 6 6 6 6 6 7 6 6 7 6 6 4 4 4 2 1 2 2 0 2 2 2 2 3 3 2 4
2 6 7 4 4 6 8 8 8 7 8 8 8 7 7 7 6 7 7 7 7 7 6 7 6 8 7 7 4 3 4 3 2 2 1 0 1 1 2 3 3 4 4
8 10 3 4 6 10 16 7 7 8 8 8 7 8 7 8 12 11 8 7 7 7 7 6 5 6 5 4 8 3 5 4 3 3 3 3 2 1 1 0 1 3 3
12 10 8 5 7 14 10 15 8 9 7 9 10 9 10 10 12 14 12 7 7 8 8 6 5 3 7 6 7 7 7 8 5 3 4 1 2 1 1 2 2 2 3
7 7 7 8 6 13 12 15 12 7 9 10 9 9 10 9 13 15 14 7 6 9 8 8 7 7 6 7 6 6 6 5 4 3 6 5 4 2 1 2 2 5 4
5 7 11 12 13 14 15 14 8 7 5 6 7 9 10 11 13 15 11 7 7 8 7 7 7 5 6 9 6 9 6 5 7 12 12 10 8 8 4 3 2 4 3
2 1 3 5 7 7 7 7 4 5 6 5 7 6 9 7 11 13 10 6 5 5 4 5 3 7 9 9 5 10 8 7 7 4 5 6 7 7 10 5 2 4 3
2 5 4 5 5 5 4 2 3 4 4 5 6 5 7 7 8 11 13 7 8 6 5 4 3 7 6 6 4 4 7 11 9 6 7 4 5 6 6 7 4 4 4
1 4 5 5 2 2 1 1 2 1 2 4 4 4 4 5 9 8 11 13 0 5 5 6 6 9 9 10 7 10 15 11 6 5 6 5 4 4 3 1 3 5 6
3 5 3 3 3 5 5 4 3 3 1 2 1 3 3 1 2 5 8 11 8 3 7 11 15 16 17 13 15 15 13 8 7 7 1 3 1 4 5 2 3 4 5
3 3 3 4 4 4 3 3 3 3 2 2 1 1 0 2 3 2 5 9 19 12 16 13 10 11 10 10 10 9 7 7 8 8 4 1 1 1 2 4 2 2 3
2 3 3 4 4 4 5 3 3 2 1 2 3 1 2 2 1 3 4 6 8 12 13 10 9 9 8 8 9 8 7 7 4 3 4 3 2 3 1 1 2 2 3
2 3 3 3 3 4 4 3 7 2 3 5 12 6 1 3 9 9 9 12 11 12 8 9 8 8 10 9 8 5 3 5 4 3 3 4 4 4 4 3 4 5 7
2 2 3 3 3 3 3 2 1 1 11 15 10 5 4 10 14 17 17 15 11 9 8 8 7 8 7 7 6 5 3 3 4 5 3 4 5 5 4 3 4 4 3
3 2 3 3 4 4 3 3 3 2 3 4 11 9 12 13 10 12 15 14 10 10 9 9 7 6 5 5 4 4 4 4 4 5 5 5 4 4 3 3 3 3 3
3 2 3 4 4 6 6 5 4 5 6 7 7 8 9 13 14 13 11 8 10 10 9 8 6 4 3 3 1 3 5 5 5 4 3 4 4 4 3 4 4 4 6
3 3 6 6 6 7 7 6 6 6 7 6 6 7 6 7 7 7 7 7 8 7 7 9 6 3 4 4 4 4 4 5 4 4 3 4 3 3 3 3 2 2 2
3 4 6 6 7 8 8 7 6 6 6 5 6 5 8 7 6 6 6 5 7 6 6 5 5 5 4 5 5 4 5 4 4 4 4 4 3 3 3 3 3 4 3
4 4 5 7 8 9 8 7 6 7 6 5 3 3 4 4 4 5 5 4 4 5 4 5 5 5 5 5 5 4 4 5 5 5 4 4 3 3 3 1 2 2 3
5 4 7 5 9 10 8 7 8 7 7 6 5 6 5 4 4 5 6 5 5 7 5 5 5 5 5 5 5 6 6 6 5 5 5 4 3 3 3 2 5 4 4
5 6 7 5 7 7 5 4 5 6 6 8 8 7 7 6 6 7 10 6 6 6 7 6 5 8 6 6 5 6 6 6 5 6 9 6 4 3 4 3 5 6 5
5 6 7 6 6 7 5 4 4 1 3 5 5 8 6 5 5 6 7 9 7 5 6 6 6 8 10 10 7 8 11 14 8 8 6 7 7 4 3 3 4 4 4
9 9 8 7 6 6 3 6 4 2 5 5 4 7 6 6 5 5 5 5 5 5 5 5 7 9 9 4 7 12 13 12 9 10 7 6 5 4 4 3 2 4 5
Wind_Direction
188 176 174 190 206 221 231 207 163 141 162 209 181 209 244 201 211 201 218 243 283 277 289 240 255 254 266 291 44 17 17 25 84 322 224 198 347 110 115 135 137 121 124
298 285 171 190 202 203 213 231 154 179 186 203 207 204 221 203 199 197 203 218 210 239 261 327 284 277 229 214 276 12 101 74 88 29 343 47 117 209 170 187 160 129 144
209 232 216 189 203 206 198 212 197 187 177 194 207 214 217 210 215 206 198 206 204 231 227 242 259 258 231 204 202 105 47 36 62 128 264 9 99 159 175 57 104 109 131
224 229 241 194 200 214 204 199 205 201 202 191 204 209 209 222 221 222 207 210 221 231 228 220 243 235 223 218 213 178 145 125 75 83 94 202 172 227 132 138 146 111 136
277 332 311 334 289 218 195 187 197 193 207 202 204 211 204 206 215 214 218 216 217 226 236 240 240 251 219 203 170 186 171 178 147 155 211 197 183 151 176 200 176 152 122
139 224 340 347 332 309 307 212 197 204 206 199 206 209 212 216 216 222 213 214 206 210 227 242 236 233 207 126 105 110 169 174 185 166 178 191 231 191 323 24 31 127 144
159 164 165 154 290 285 272 296 229 216 205 210 210 203 216 219 217 219 227 222 212 200 208 214 232 220 158 154 106 109 94 76 74 162 171 143 125 83 28 74 72 95 107
152 155 156 139 217 267 270 256 237 220 213 222 221 210 213 220 212 223 233 223 221 213 198 205 208 217 199 163 156 137 90 56 19 78 101 103 84 49 122 150 149 110 96
178 178 185 195 212 236 240 238 226 222 234 223 217 216 212 229 216 220 221 219 210 217 201 193 191 194 148 142 168 134 116 85 51 87 97 94 72 42 29 128 85 138 109
6 260 232 216 227 232 237 248 238 220 214 210 232 228 231 227 229 228 210 221 210 202 176 112 29 173 159 150 169 152 144 153 139 121 81 57 60 41 28 53 86 107 120
38 329 317 265 222 242 248 232 254 255 236 226 236 233 238 226 235 219 215 197 213 209 176 153 101 94 109 111 110 124 165 145 147 124 101 82 59 52 49 340 37 101 101
14 305 298 285 269 211 171 17 348 260 258 264 259 256 243 242 233 223 187 205 138 219 158 128 128 129 104 96 80 93 103 108 104 99 113 116 113 96 84 306 30 62 68
344 313 286 296 91 53 47 24 2 6 291 308 312 299 294 26 62 134 166 173 192 133 129 126 130 118 106 96 105 100 95 100 104 101 43 13 150 159 140 80 57 81 74
297 317 257 162 124 93 77 38 5 6 359 344 204 240 148 106 113 91 122 120 106 108 121 127 129 118 112 119 112 106 112 116 120 139 147 238 121 64 114 167 168 160 94
312 321 166 156 143 99 73 32 354 22 344 306 297 251 213 212 209 157 170 141 130 137 128 137 130 129 130 125 114 111 122 126 124 158 138 144 171 134 136 139 144 150 125
342 297 160 173 152 150 149 141 64 25 334 263 263 240 81 98 100 91 87 90 108 145 129 130 126 131 128 121 113 103 89 104 131 142 132 135 117 93 76 43 60 89 96
296 259 165 215 139 120 95 103 124 142 66 40 25 70 120 134 115 113 102 87 72 86 97 101 99 109 116 101 106 114 124 113 110 99 106 96 90 89 92 75 78 98 106
257 193 159 131 116 110 115 98 87 76 63 36 32 63 66 81 89 109 115 106 93 77 82 78 73 92 76 92 100 102 99 88 83 95 93 91 97 112 101 86 77 96 80
244 172 149 130 117 113 103 96 94 98 97 101 98 71 77 86 77 63 64 95 109 108 107 104 98 80 67 18 137 114 123 119 113 101 87 99 105 112 107 92 87 88 89
191 171 142 127 131 119 114 110 111 105 104 106 105 108 107 90 87 79 72 87 96 97 113 116 119 166 195 156 131 138 115 113 111 116 111 97 86 118 114 143 141 119 94
180 159 151 136 137 136 132 129 126 122 120 126 136 142 131 123 124 119 121 126 128 137 146 161 173 164 134 133 151 145 141 137 141 142 130 99 118 113 122 131 129 150 132
177 166 174 167 154 148 153 143 147 145 151 142 145 135 119 107 135 145 153 159 192 193 161 139 141 147 159 163 161 159 164 158 163 144 142 150 138 139 147 156 126 118 106
148 149 168 145 156 154 167 170 164 167 164 145 161 169 191 204 181 185 201 197 178 148 152 143 155 176 185 181 184 172 169 180 167 156 167 173 161 154 142 110 126 110 104
146 140 127 124 138 114 111 133 137 161 170 169 177 181 189 210 227 176 159 155 154 158 164 167 174 183 195 192 184 168 164 156 152 123 127 122 110 76 60 67 144 144 130
84 110 112 113 125 118 108 77 129 169 162 151 180 185 180 186 146 129 141 155 165 159 174 182 186 192 187 192 195 150 154 149 144 134 117 124 130 128 121 102 123 156 143
99 90 88 86 91 83 75 57 23 135 128 109 78 107 120 123 138 149 147 149 147 172 133 122 118 105 89 120 178 152 157 160 145 140 130 125 118 96 103 105 60 139 167